Simultaneous Nadir Overpasses (SNOs) Predictions

Prediction of SNOs between GOES-17 and NPP Satellite Orbit:

Table of predicted SNOs for the next 14.0 days since TLE Epoch: 5/25/2024
Index Date Time (GOES-17) GOES-17 Lat,Lon NPP Lat,Lon Distance(km) Time Diff (sec)
1 05/25/2024 20:11:26 0.00,-104.71 0.77,-101.39 379.21 80
2 05/27/2024 08:30:31 -0.00,-104.71 0.42,-106.65 220.47 80
3 05/28/2024 08:14:25 0.00,-104.71 -0.58,-102.11 296.52 80
4 05/29/2024 20:33:38 -0.00,-104.70 -0.64,-107.39 307.50 80
5 05/30/2024 20:17:33 -0.01,-104.70 0.43,-102.87 209.82 80
6 06/01/2024 08:36:38 0.00,-104.71 0.75,-108.13 389.33 80
7 06/02/2024 08:20:31 0.01,-104.71 -0.26,-103.59 127.87 80
8 06/03/2024 20:39:45 0.01,-104.70 -0.94,-108.88 476.28 80
9 06/04/2024 20:23:38 0.00,-104.70 0.07,-104.34 40.90 80
10 06/07/2024 08:23:57 -0.01,-104.71 0.08,-105.07 41.31 80
